| time (UTC) | temp F | wind direction | speed knots | gust knots | rain 1hr in | rain 24hr in | rain mn in | humidity % | barometer mb |
| 20260510144517 | 56 | 0 | 4.3 | 9.6 | 0.00 | 0.00 | 0.00 | 39 | 1019.3 |
| 20260510143517 | 56 | 0 | 6.1 | 11.3 | 0.00 | 0.00 | 0.00 | 40 | 1019.3 |
| 20260510142517 | 57 | 0 | 4.3 | 8.7 | 0.00 | 0.00 | 0.00 | 41 | 1019.4 |
| 20260510141517 | 58 | 0 | 4.3 | 8.7 | 0.00 | 0.00 | 0.00 | 41 | 1019.4 |
| 20260510140517 | 57 | 135 | 2.6 | 6.1 | 0.00 | 0.00 | 0.00 | 41 | 1019.3 |
| 20260510135517 | 57 | 135 | 2.6 | 4.3 | 0.00 | 0.00 | 0.00 | 42 | 1019.2 |
| 20260510134517 | 56 | 113 | 2.6 | 9.6 | 0.00 | 0.00 | 0.00 | 43 | 1019.1 |
| 20260510133517 | 54 | 113 | 2.6 | 6.1 | 0.00 | 0.00 | 0.00 | 45 | 1019.0 |
| 20260510132557 | 53 | 113 | 1.7 | 7.0 | 0.00 | 0.00 | 0.00 | 47 | 1019.0 |
| 20260510131517 | 51 | 113 | 2.6 | 3.5 | 0.00 | 0.00 | 0.00 | 49 | 1018.9 |
| 20260510130518 | 50 | 135 | 2.6 | 5.2 | 0.00 | 0.00 | 0.00 | 52 | 1018.9 |
| 20260510125538 | 48 | 135 | 1.7 | 3.5 | 0.00 | 0.00 | 0.00 | 55 | 1018.9 |
| 20260510124517 | 46 | 0.0 | 1.7 | 0.00 | 0.00 | 0.00 | 57 | 1018.8 | |
| 20260510123517 | 45 | 68 | 0.9 | 2.6 | 0.00 | 0.00 | 0.00 | 58 | 1018.6 |
| 20260510122537 | 43 | 0.0 | 0.0 | 0.00 | 0.00 | 0.00 | 60 | 1018.6 | |
| 20260510121517 | 42 | 0.0 | 1.7 | 0.00 | 0.00 | 0.00 | 61 | 1018.5 | |
| 20260510120518 | 41 | 0.0 | 0.0 | 0.00 | 0.00 | 0.00 | 62 | 1018.3 | |
| 20260510115519 | 41 | 0.0 | 0.0 | 0.00 | 0.00 | 0.00 | 62 | 1018.2 | |
| 20260510114517 | 41 | 0.0 | 0.0 | 0.00 | 0.00 | 0.00 | 62 | 1018.2 | |
| 20260510113517 | 41 | 0.0 | 0.0 | 0.00 | 0.00 | 0.00 | 61 | 1018.2 | |
| 20260510112518 | 41 | 0.0 | 0.0 | 0.00 | 0.00 | 0.00 | 60 | 1018.1 | |
| 20260510111517 | 41 | 0.0 | 0.0 | 0.00 | 0.00 | 0.00 | 60 | 1018.2 | |
| 20260510110537 | 41 | 0.0 | 0.0 | 0.00 | 0.00 | 0.00 | 59 | 1018.1 | |
| 20260510105517 | 41 | 0.0 | 0.0 | 0.00 | 0.00 | 0.00 | 59 | 1018.2 | |
| 20260510104538 | 41 | 0.0 | 0.0 | 0.00 | 0.00 | 0.00 | 59 | 1018.1 | |
| 20260510103518 | 41 | 0.0 | 0.0 | 0.00 | 0.00 | 0.00 | 60 | 1018.1 | |
| 20260510102517 | 40 | 0.0 | 0.0 | 0.00 | 0.00 | 0.00 | 61 | 1017.9 | |
| 20260510101557 | 40 | 135 | 0.9 | 3.5 | 0.00 | 0.00 | 0.00 | 63 | 1018.0 |
| 20260510100517 | 39 | 135 | 1.7 | 2.6 | 0.00 | 0.00 | 0.00 | 64 | 1017.8 |
| 20260510095517 | 39 | 135 | 0.9 | 2.6 | 0.00 | 0.00 | 0.00 | 64 | 1017.7 |
| 20260510094517 | 39 | 0.0 | 0.0 | 0.00 | 0.00 | 0.00 | 65 | 1017.6 | |
| 20260510093517 | 39 | 0.0 | 0.0 | 0.00 | 0.00 | 0.00 | 65 | 1017.5 | |
| 20260510092557 | 39 | 0.0 | 0.0 | 0.00 | 0.00 | 0.00 | 64 | 1017.4 | |
| 20260510091517 | 39 | 0.0 | 0.0 | 0.00 | 0.00 | 0.00 | 65 | 1017.2 | |
| 20260510090517 | 40 | 0.0 | 0.0 | 0.00 | 0.00 | 0.00 | 65 | 1017.0 | |
| 20260510085517 | 40 | 0.0 | 0.0 | 0.00 | 0.00 | 0.00 | 63 | 1017.1 | |
| 20260510084519 | 40 | 0.0 | 0.0 | 0.00 | 0.00 | 0.00 | 63 | 1016.8 | |
| 20260510083557 | 40 | 0.0 | 0.0 | 0.00 | 0.00 | 0.00 | 64 | 1016.7 | |
| 20260510082517 | 40 | 0.0 | 0.0 | 0.00 | 0.00 | 0.00 | 63 | 1016.8 | |
| 20260510081537 | 40 | 0.0 | 0.0 | 0.00 | 0.00 | 0.00 | 62 | 1016.5 | |
| 20260510080537 | 41 | 0.0 | 0.0 | 0.00 | 0.00 | 0.00 | 63 | 1016.5 | |
| 20260510075537 | 41 | 0.0 | 0.0 | 0.00 | 0.00 | 0.00 | 62 | 1016.4 | |
| 20260510074517 | 41 | 0.0 | 0.0 | 0.00 | 0.00 | 0.00 | 61 | 1016.5 | |
| 20260510073517 | 41 | 0.0 | 0.0 | 0.00 | 0.00 | 0.00 | 61 | 1016.5 | |
| 20260510072517 | 42 | 0.0 | 0.0 | 0.00 | 0.00 | 0.00 | 61 | 1016.3 | |
| 20260510071517 | 42 | 0.0 | 0.0 | 0.00 | 0.00 | 0.00 | 61 | 1016.4 | |
| 20260510070517 | 42 | 0.0 | 0.0 | 0.00 | 0.00 | 0.00 | 60 | 1016.4 | |
| 20260510065517 | 42 | 0.0 | 0.0 | 0.00 | 0.00 | 0.00 | 59 | 1016.3 | |
| 20260510064537 | 43 | 0.0 | 0.0 | 0.00 | 0.00 | 0.00 | 59 | 1016.4 | |
| 20260510063516 | 43 | 0.0 | 0.0 | 0.00 | 0.00 | 0.00 | 56 | 1016.4 | |
| 20260510062516 | 43 | 0.0 | 0.0 | 0.00 | 0.00 | 0.00 | 55 | 1016.3 | |
| 20260510061517 | 44 | 0.0 | 0.0 | 0.00 | 0.00 | 0.00 | 55 | 1016.3 | |
| 20260510060517 | 44 | 0.0 | 0.0 | 0.00 | 0.00 | 0.00 | 53 | 1016.3 | |
| 20260510055517 | 45 | 0.0 | 0.0 | 0.00 | 0.00 | 0.00 | 51 | 1016.3 | |
| 20260510054517 | 45 | 0.0 | 0.0 | 0.00 | 0.00 | 0.00 | 50 | 1016.2 | |
| 20260510053517 | 46 | 0.0 | 0.0 | 0.00 | 0.00 | 0.00 | 49 | 1016.4 | |
| 20260510052517 | 46 | 0.0 | 0.0 | 0.00 | 0.00 | 0.00 | 48 | 1016.3 | |
| 20260510051517 | 47 | 0.0 | 0.0 | 0.00 | 0.00 | 0.00 | 47 | 1016.0 | |
| 20260510050637 | 47 | 0.0 | 0.0 | 0.00 | 0.00 | 0.00 | 45 | 1015.9 | |
| 20260510045537 | 48 | 0.0 | 0.0 | 0.00 | 0.00 | 0.00 | 44 | 1015.8 | |
| 20260510044537 | 48 | 0.0 | 0.0 | 0.00 | 0.00 | 0.00 | 44 | 1015.7 | |
| 20260510043516 | 49 | 0.0 | 0.0 | 0.00 | 0.00 | 0.00 | 43 | 1015.7 | |
| 20260510042517 | 50 | 0.0 | 0.0 | 0.00 | 0.00 | 0.00 | 43 | 1015.6 | |
| 20260510041517 | 50 | 0.0 | 0.0 | 0.00 | 0.00 | 0.00 | 42 | 1015.6 | |
| 20260510040537 | 50 | 0.0 | 0.0 | 0.00 | 0.00 | 0.00 | 41 | 1015.5 | |
| 20260510035537 | 51 | 0.0 | 0.0 | 0.00 | 0.00 | 0.00 | 40 | 1015.4 | |
| 20260510034517 | 51 | 0.0 | 0.0 | 0.00 | 0.00 | 0.00 | 39 | 1015.2 | |
| 20260510033517 | 52 | 0.0 | 0.0 | 0.00 | 0.00 | 0.00 | 39 | 1015.2 | |
| 20260510032519 | 52 | 0.0 | 0.0 | 0.00 | 0.00 | 0.00 | 38 | 1015.2 | |
| 20260510031517 | 53 | 0.0 | 0.0 | 0.00 | 0.00 | 0.00 | 38 | 1015.1 | |
| 20260510030517 | 53 | 0.0 | 0.9 | 0.00 | 0.00 | 0.00 | 37 | 1015.1 | |
| 20260510025517 | 54 | 158 | 0.9 | 2.6 | 0.00 | 0.00 | 0.00 | 36 | 1014.8 |
| 20260510024537 | 54 | 158 | 0.9 | 2.6 | 0.00 | 0.00 | 0.00 | 36 | 1014.6 |
| 20260510023537 | 54 | 158 | 1.7 | 3.5 | 0.00 | 0.00 | 0.00 | 35 | 1014.4 |
| 20260510022517 | 55 | 158 | 0.9 | 4.3 | 0.00 | 0.00 | 0.00 | 35 | 1014.2 |
| 20260510021517 | 55 | 158 | 1.7 | 4.3 | 0.00 | 0.00 | 0.00 | 35 | 1013.9 |
| 20260510020517 | 56 | 0 | 2.6 | 5.2 | 0.00 | 0.00 | 0.00 | 34 | 1013.8 |
| 20260510015517 | 56 | 135 | 2.6 | 4.3 | 0.00 | 0.00 | 0.00 | 33 | 1013.6 |
| 20260510014516 | 57 | 135 | 2.6 | 6.1 | 0.00 | 0.00 | 0.00 | 32 | 1013.3 |
| 20260510013517 | 57 | 0 | 2.6 | 7.0 | 0.00 | 0.00 | 0.00 | 31 | 1013.1 |
| 20260510012537 | 58 | 158 | 3.5 | 7.0 | 0.00 | 0.00 | 0.00 | 30 | 1013.0 |
| 20260510011517 | 58 | 135 | 4.3 | 9.6 | 0.00 | 0.00 | 0.00 | 30 | 1012.8 |
| 20260510010537 | 59 | 135 | 4.3 | 8.7 | 0.00 | 0.00 | 0.00 | 29 | 1012.6 |
| 20260510005517 | 59 | 135 | 4.3 | 8.7 | 0.00 | 0.00 | 0.00 | 28 | 1012.5 |
| 20260510004517 | 59 | 135 | 4.3 | 10.4 | 0.00 | 0.00 | 0.00 | 28 | 1012.3 |
| 20260510003516 | 59 | 158 | 3.5 | 8.7 | 0.00 | 0.00 | 0.00 | 28 | 1012.2 |
| 20260510002516 | 59 | 158 | 3.5 | 7.8 | 0.00 | 0.00 | 0.00 | 27 | 1012.1 |
| 20260510001517 | 60 | 158 | 5.2 | 10.4 | 0.00 | 0.00 | 0.00 | 25 | 1011.9 |
| 20260510000517 | 60 | 135 | 5.2 | 13.0 | 0.00 | 0.00 | 0.00 | 25 | 1011.8 |
| 20260509235517 | 61 | 135 | 5.2 | 13.0 | 0.00 | 0.00 | 0.00 | 25 | 1011.8 |
| 20260509234517 | 61 | 158 | 7.0 | 12.2 | 0.00 | 0.00 | 0.00 | 26 | 1011.7 |
| 20260509233517 | 61 | 158 | 6.1 | 13.9 | 0.00 | 0.00 | 0.00 | 26 | 1011.7 |
| 20260509232517 | 62 | 158 | 7.0 | 15.6 | 0.00 | 0.00 | 0.00 | 25 | 1011.5 |
| 20260509231516 | 62 | 135 | 6.1 | 10.4 | 0.00 | 0.00 | 0.00 | 25 | 1011.3 |
| 20260509230517 | 62 | 0 | 5.2 | 9.6 | 0.00 | 0.00 | 0.00 | 26 | 1011.2 |
| 20260509225516 | 62 | 158 | 7.8 | 14.8 | 0.00 | 0.00 | 0.00 | 25 | 1011.1 |
| 20260509224517 | 62 | 158 | 6.1 | 13.9 | 0.00 | 0.00 | 0.00 | 24 | 1010.8 |
| 20260509223516 | 63 | 0 | 6.1 | 12.2 | 0.00 | 0.00 | 0.00 | 25 | 1010.7 |
| 20260509222516 | 63 | 135 | 7.0 | 15.6 | 0.00 | 0.00 | 0.00 | 25 | 1010.6 |
| 20260509221536 | 63 | 158 | 7.8 | 14.8 | 0.00 | 0.00 | 0.00 | 24 | 1010.5 |
| 20260509220517 | 64 | 135 | 7.8 | 13.9 | 0.00 | 0.00 | 0.00 | 23 | 1010.5 |
| 20260509215517 | 64 | 135 | 7.0 | 18.2 | 0.00 | 0.00 | 0.00 | 23 | 1010.6 |
| 20260509214516 | 64 | 135 | 7.0 | 13.0 | 0.00 | 0.00 | 0.00 | 24 | 1010.4 |
| 20260509213556 | 64 | 158 | 7.0 | 14.8 | 0.00 | 0.00 | 0.00 | 23 | 1010.3 |
| 20260509212536 | 64 | 135 | 7.8 | 15.6 | 0.00 | 0.00 | 0.00 | 22 | 1010.2 |
| 20260509211516 | 64 | 158 | 6.1 | 15.6 | 0.00 | 0.00 | 0.00 | 25 | 1010.1 |
| 20260509210516 | 64 | 158 | 9.6 | 18.2 | 0.00 | 0.00 | 0.00 | 22 | 1010.0 |
| 20260509205537 | 65 | 158 | 8.7 | 15.6 | 0.00 | 0.00 | 0.00 | 22 | 1009.9 |
| 20260509204516 | 65 | 158 | 7.8 | 18.2 | 0.00 | 0.00 | 0.00 | 22 | 1009.8 |
| 20260509203516 | 65 | 135 | 7.0 | 14.8 | 0.00 | 0.00 | 0.00 | 25 | 1009.6 |
| 20260509202517 | 65 | 158 | 7.0 | 18.2 | 0.00 | 0.00 | 0.00 | 25 | 1009.6 |
| 20260509201516 | 65 | 158 | 7.0 | 16.5 | 0.00 | 0.00 | 0.00 | 26 | 1009.6 |
| 20260509200516 | 65 | 158 | 7.0 | 13.9 | 0.00 | 0.00 | 0.00 | 26 | 1009.5 |
| 20260509195516 | 66 | 135 | 7.8 | 14.8 | 0.00 | 0.00 | 0.00 | 27 | 1009.4 |
| 20260509194516 | 65 | 135 | 7.0 | 18.2 | 0.00 | 0.00 | 0.00 | 28 | 1009.3 |
| 20260509193517 | 65 | 135 | 7.8 | 16.5 | 0.00 | 0.00 | 0.00 | 26 | 1009.3 |
| 20260509192517 | 65 | 135 | 7.8 | 14.8 | 0.00 | 0.00 | 0.00 | 27 | 1009.2 |
| 20260509191516 | 65 | 158 | 7.8 | 14.8 | 0.00 | 0.00 | 0.00 | 28 | 1009.2 |
| 20260509190516 | 64 | 158 | 7.8 | 16.5 | 0.00 | 0.00 | 0.00 | 28 | 1009.1 |
| 20260509185536 | 65 | 158 | 7.8 | 12.2 | 0.00 | 0.00 | 0.00 | 28 | 1009.1 |
| 20260509184556 | 65 | 158 | 7.0 | 19.1 | 0.00 | 0.00 | 0.00 | 27 | 1009.1 |
| 20260509183536 | 65 | 135 | 7.8 | 13.9 | 0.00 | 0.00 | 0.00 | 28 | 1009.0 |
| 20260509182516 | 65 | 158 | 7.0 | 12.2 | 0.00 | 0.00 | 0.00 | 31 | 1008.8 |
| 20260509181516 | 65 | 158 | 8.7 | 16.5 | 0.00 | 0.00 | 0.00 | 29 | 1008.8 |
| 20260509180516 | 65 | 158 | 7.8 | 20.0 | 0.00 | 0.00 | 0.00 | 31 | 1008.9 |
| 20260509175516 | 65 | 135 | 6.1 | 12.2 | 0.00 | 0.00 | 0.00 | 31 | 1008.9 |
| 20260509174536 | 64 | 135 | 7.0 | 14.8 | 0.00 | 0.00 | 0.00 | 33 | 1008.7 |
| 20260509173516 | 64 | 158 | 9.6 | 16.5 | 0.00 | 0.00 | 0.00 | 32 | 1008.7 |
| 20260509172516 | 64 | 158 | 8.7 | 20.0 | 0.00 | 0.00 | 0.00 | 32 | 1008.7 |
| 20260509171537 | 64 | 158 | 7.8 | 16.5 | 0.00 | 0.00 | 0.00 | 35 | 1008.6 |
| 20260509170516 | 63 | 135 | 8.7 | 15.6 | 0.00 | 0.00 | 0.00 | 34 | 1008.7 |
| 20260509165516 | 63 | 135 | 6.1 | 10.4 | 0.00 | 0.00 | 0.00 | 35 | 1008.7 |
| 20260509164536 | 62 | 23 | 5.2 | 13.9 | 0.00 | 0.00 | 0.00 | 35 | 1008.6 |
| 20260509163516 | 62 | 158 | 7.8 | 16.5 | 0.00 | 0.00 | 0.00 | 35 | 1008.4 |
| 20260509162536 | 61 | 158 | 7.8 | 15.6 | 0.00 | 0.00 | 0.00 | 37 | 1008.6 |
| 20260509161516 | 60 | 158 | 7.0 | 13.9 | 0.00 | 0.00 | 0.00 | 41 | 1008.3 |
| 20260509160516 | 60 | 158 | 8.7 | 19.1 | 0.00 | 0.00 | 0.00 | 41 | 1008.3 |
| 20260509155556 | 59 | 158 | 6.1 | 13.0 | 0.00 | 0.00 | 0.00 | 47 | 1008.2 |
| 20260509154516 | 58 | 158 | 8.7 | 14.8 | 0.00 | 0.00 | 0.00 | 50 | 1008.2 |
| 20260509153516 | 57 | 135 | 5.2 | 11.3 | 0.00 | 0.00 | 0.00 | 53 | 1007.9 |
| 20260509152536 | 57 | 158 | 7.0 | 19.1 | 0.00 | 0.00 | 0.00 | 55 | 1008.0 |
| 20260509151516 | 56 | 158 | 6.1 | 12.2 | 0.00 | 0.00 | 0.00 | 56 | 1007.9 |
| 20260509150516 | 56 | 158 | 5.2 | 11.3 | 0.00 | 0.00 | 0.00 | 59 | 1007.6 |
| 20260509145516 | 56 | 158 | 6.1 | 11.3 | 0.00 | 0.00 | 0.00 | 61 | 1007.4 |